CMA CGM Thalassa — 5BNE2 — position and weather

sailwx.info

Track history (hours):
 
Tides and Currents Weather Stations Pressure Air Temp Water Temp Dewpoint Dewpoint Depression Visibility Wind Speed Wind Dir Waves Ship Positions

CMA CGM Thalassa

Last reported at 2014-Jul-28 05:25 UTC. Time now 2014-Jul-28 06:13 UTC.
Position N 49°55' W 000°10'.

Length 347 m; draft 13.7 m.

Type: Ship (hazmat cat A). MMSI: 212151000.

Date/timePositionNaut miles runAvg speedWind from/ knotsBaromVisibWave heightAir tempDewpointWater temp
2014-Jul-28 05:25N 49°55' W 000°10'1416.5
2014-Jul-28 04:33N 49°41' W 000°10'1312.6
2014-Jul-28 03:34N 49°30' E 000°00'7 6.9
2014-Jul-28 02:32N 49°27' E 000°10'0 0.0
2014-Jul-28 01:31N 49°27' E 000°10'0 0.0
2014-Jul-28 00:33N 49°27' E 000°10'0 0.0
2014-Jul-27 23:33N 49°27' E 000°10'0 0.0
2014-Jul-27 22:32N 49°27' E 000°10'0 0.0
2014-Jul-27 21:32N 49°27' E 000°10'0 0.0
2014-Jul-27 20:31N 49°27' E 000°10'0 0.0
2014-Jul-27 19:31N 49°27' E 000°10'0 0.0
2014-Jul-27 18:31N 49°27' E 000°10'0 0.0
2014-Jul-27 17:33N 49°27' E 000°10'0 0.0
2014-Jul-27 16:30N 49°27' E 000°10'0 0.0
2014-Jul-27 15:32N 49°27' E 000°10'0 0.0
2014-Jul-27 14:32N 49°27' E 000°10'0 0.0
2014-Jul-27 13:31N 49°27' E 000°10'0 0.0
2014-Jul-27 12:31N 49°27' E 000°10'0 0.0
2014-Jul-27 11:31N 49°27' E 000°10'0 0.0
2014-Jul-27 10:33N 49°27' E 000°10'0 0.0
2014-Jul-27 09:33N 49°27' E 000°10'0 0.0
2014-Jul-27 08:32N 49°27' E 000°10'0 0.0
2014-Jul-27 07:32N 49°27' E 000°10'0 0.0
2014-Jul-27 06:31N 49°27' E 000°10'0 0.0
2014-Jul-27 05:31N 49°27' E 000°10'0 0.0
2014-Jul-27 04:34N 49°27' E 000°10'0 0.0
2014-Jul-27 03:30N 49°27' E 000°10'1 1.4
2014-Jul-27 02:33N 49°28' E 000°08'1110.5
2014-Jul-27 01:33N 49°32' W 000°07'1010.5
2014-Jul-27 00:33N 49°35' W 000°22'1313.1
2014-Jul-26 23:33N 49°40' W 000°41'1212.0
2014-Jul-26 22:33N 49°44' W 000°58'1313.4
2014-Jul-26 21:33N 49°49' W 001°17'1414.4
2014-Jul-26 20:33N 49°54' W 001°38'2220.1
2014-Jul-26 19:27N 49°56' W 002°12'8621.2
2014-Jul-26 15:24N 49°19' W 004°12'1921.7
2014-Jul-26 14:32N 49°10' W 004°37'2321.4
2014-Jul-26 13:28N 48°58' W 005°07'3920.1
2014-Jul-26 11:33N 48°32' W 005°50'2020.5
2014-Jul-26 10:33N 48°14' W 006°04'2919.8
2014-Jul-26 09:07N 47°48' W 006°23'1119.3
2014-Jul-26 08:34N 47°39' W 006°30'4020.2
2014-Jul-26 06:33N 47°03' W 006°58'2020.3
2014-Jul-26 05:34N 46°45' W 007°12'43219.6
2014-Jul-25 07:32N 39°49' W 009°50'7819.5
2014-Jul-25 03:31N 38°31' W 009°47'2020.2
2014-Jul-25 02:33N 38°12' W 009°41'2020.0
2014-Jul-25 01:33N 37°52' W 009°36'2020.2
2014-Jul-25 00:33N 37°33' W 009°31'2220.2
2014-Jul-24 23:26N 37°11' W 009°26'1819.6
2014-Jul-24 22:33N 36°53' W 009°21'1918.9
2014-Jul-24 21:31N 36°42' W 009°01'1920.0
2014-Jul-24 20:33N 36°37' W 008°38'2319.5
2014-Jul-24 19:24N 36°30' W 008°11'1619.7
2014-Jul-24 18:33N 36°24' W 007°52'2020.0
2014-Jul-24 17:33N 36°18' W 007°28'26619.0
2014-Jul-24 03:31N 36°29' W 001°58'2020.7
2014-Jul-24 02:33N 36°32' W 001°33'4020.4
2014-Jul-24 00:34N 36°39' W 000°44'2020.3
2014-Jul-23 23:33N 36°43' W 000°19'2020.5
2014-Jul-23 22:33N 36°47' E 000°06'2120.5
2014-Jul-23 21:33N 36°51' E 000°32'2020.3
2014-Jul-23 20:33N 36°54' E 000°57'2121.0
2014-Jul-23 19:33N 36°58' E 001°22'2019.6
2014-Jul-23 18:33N 37°02' E 001°46'2121.3
2014-Jul-23 17:33N 37°05' E 002°13'2121.0
2014-Jul-23 16:33N 37°09' E 002°39'2020.3
2014-Jul-23 15:33N 37°13' E 003°04'2020.4
2014-Jul-23 14:34N 37°16' E 003°29'2120.7
2014-Jul-23 13:33N 37°20' E 003°55'2120.7
2014-Jul-23 12:33N 37°24' E 004°20'2120.9
2014-Jul-23 11:34N 37°27' E 004°46'2422.4
2014-Jul-23 10:30N 37°32' E 005°16'1819.0
2014-Jul-23 09:33N 37°35' E 005°38'2120.8
2014-Jul-23 08:33N 37°39' E 006°04'4521.2
2014-Jul-23 06:25N 37°47' E 006°60'30519.0
2014-Jul-22 14:24N 36°44' E 013°15'1720.1
2014-Jul-22 13:33N 36°39' E 013°35'2020.1
2014-Jul-22 12:33N 36°33' E 013°59'2020.0
2014-Jul-22 11:33N 36°27' E 014°23'  
Track history (hours):
 
Tides and Currents Weather Stations Pressure Air Temp Water Temp Dewpoint Dewpoint Depression Visibility Wind Speed Wind Dir Waves Ship Positions

CMA CGM Thalassa

Last reported at 2014-Jul-28 05:25 UTC. Time now 2014-Jul-28 06:13 UTC.
Position N 49°55' W 000°10'.

Length 347 m; draft 13.7 m.

Type: Ship (hazmat cat A). MMSI: 212151000.

Date/timePositionNaut miles runAvg speedWind from/ knotsBaromVisibWave heightAir tempDewpointWater temp
2014-Jul-28 05:25N 49°55' W 000°10'1416.5
2014-Jul-28 04:33N 49°41' W 000°10'1312.6
2014-Jul-28 03:34N 49°30' E 000°00'7 6.9
2014-Jul-28 02:32N 49°27' E 000°10'0 0.0
2014-Jul-28 01:31N 49°27' E 000°10'0 0.0
2014-Jul-28 00:33N 49°27' E 000°10'0 0.0
2014-Jul-27 23:33N 49°27' E 000°10'0 0.0
2014-Jul-27 22:32N 49°27' E 000°10'0 0.0
2014-Jul-27 21:32N 49°27' E 000°10'0 0.0
2014-Jul-27 20:31N 49°27' E 000°10'0 0.0
2014-Jul-27 19:31N 49°27' E 000°10'0 0.0
2014-Jul-27 18:31N 49°27' E 000°10'0 0.0
2014-Jul-27 17:33N 49°27' E 000°10'0 0.0
2014-Jul-27 16:30N 49°27' E 000°10'0 0.0
2014-Jul-27 15:32N 49°27' E 000°10'0 0.0
2014-Jul-27 14:32N 49°27' E 000°10'0 0.0
2014-Jul-27 13:31N 49°27' E 000°10'0 0.0
2014-Jul-27 12:31N 49°27' E 000°10'0 0.0
2014-Jul-27 11:31N 49°27' E 000°10'0 0.0
2014-Jul-27 10:33N 49°27' E 000°10'0 0.0
2014-Jul-27 09:33N 49°27' E 000°10'0 0.0
2014-Jul-27 08:32N 49°27' E 000°10'0 0.0
2014-Jul-27 07:32N 49°27' E 000°10'0 0.0
2014-Jul-27 06:31N 49°27' E 000°10'0 0.0
2014-Jul-27 05:31N 49°27' E 000°10'0 0.0
2014-Jul-27 04:34N 49°27' E 000°10'0 0.0
2014-Jul-27 03:30N 49°27' E 000°10'1 1.4
2014-Jul-27 02:33N 49°28' E 000°08'1110.5
2014-Jul-27 01:33N 49°32' W 000°07'1010.5
2014-Jul-27 00:33N 49°35' W 000°22'1313.1
2014-Jul-26 23:33N 49°40' W 000°41'1212.0
2014-Jul-26 22:33N 49°44' W 000°58'1313.4
2014-Jul-26 21:33N 49°49' W 001°17'1414.4
2014-Jul-26 20:33N 49°54' W 001°38'2220.1
2014-Jul-26 19:27N 49°56' W 002°12'8621.2
2014-Jul-26 15:24N 49°19' W 004°12'1921.7
2014-Jul-26 14:32N 49°10' W 004°37'2321.4
2014-Jul-26 13:28N 48°58' W 005°07'3920.1
2014-Jul-26 11:33N 48°32' W 005°50'2020.5
2014-Jul-26 10:33N 48°14' W 006°04'2919.8
2014-Jul-26 09:07N 47°48' W 006°23'1119.3
2014-Jul-26 08:34N 47°39' W 006°30'4020.2
2014-Jul-26 06:33N 47°03' W 006°58'2020.3
2014-Jul-26 05:34N 46°45' W 007°12'43219.6
2014-Jul-25 07:32N 39°49' W 009°50'7819.5
2014-Jul-25 03:31N 38°31' W 009°47'2020.2
2014-Jul-25 02:33N 38°12' W 009°41'2020.0
2014-Jul-25 01:33N 37°52' W 009°36'2020.2
2014-Jul-25 00:33N 37°33' W 009°31'2220.2
2014-Jul-24 23:26N 37°11' W 009°26'1819.6
2014-Jul-24 22:33N 36°53' W 009°21'1918.9
2014-Jul-24 21:31N 36°42' W 009°01'1920.0
2014-Jul-24 20:33N 36°37' W 008°38'2319.5
2014-Jul-24 19:24N 36°30' W 008°11'1619.7
2014-Jul-24 18:33N 36°24' W 007°52'2020.0
2014-Jul-24 17:33N 36°18' W 007°28'26619.0
2014-Jul-24 03:31N 36°29' W 001°58'2020.7
2014-Jul-24 02:33N 36°32' W 001°33'4020.4
2014-Jul-24 00:34N 36°39' W 000°44'2020.3
2014-Jul-23 23:33N 36°43' W 000°19'2020.5
2014-Jul-23 22:33N 36°47' E 000°06'2120.5
2014-Jul-23 21:33N 36°51' E 000°32'2020.3
2014-Jul-23 20:33N 36°54' E 000°57'2121.0
2014-Jul-23 19:33N 36°58' E 001°22'2019.6
2014-Jul-23 18:33N 37°02' E 001°46'2121.3
2014-Jul-23 17:33N 37°05' E 002°13'2121.0
2014-Jul-23 16:33N 37°09' E 002°39'2020.3
2014-Jul-23 15:33N 37°13' E 003°04'2020.4
2014-Jul-23 14:34N 37°16' E 003°29'2120.7
2014-Jul-23 13:33N 37°20' E 003°55'2120.7
2014-Jul-23 12:33N 37°24' E 004°20'2120.9
2014-Jul-23 11:34N 37°27' E 004°46'2422.4
2014-Jul-23 10:30N 37°32' E 005°16'1819.0
2014-Jul-23 09:33N 37°35' E 005°38'2120.8
2014-Jul-23 08:33N 37°39' E 006°04'4521.2
2014-Jul-23 06:25N 37°47' E 006°60'30519.0
2014-Jul-22 14:24N 36°44' E 013°15'1720.1
2014-Jul-22 13:33N 36°39' E 013°35'2020.1
2014-Jul-22 12:33N 36°33' E 013°59'2020.0
2014-Jul-22 11:33N 36°27' E 014°23'  

Dump ship's entire track history